289  
ASUS43 KFSD 192010  
RWRFSD  
 
WEATHER ROUNDUP FOR SE SOUTH DAKOTA/SW MINNESOTA/NW IOWA  
NATIONAL WEATHER SERVICE SIOUX FALLS SD  
300 PM CDT FRI APR 19 2019  
 
NOTE: "FAIR" INDICATES FEW OR NO CLOUDS BELOW 12,000 FEET WITH NO  
SIGNIFICANT WEATHER AND OR S TO VISIBILITY
.  
 
 
SDZ038>040-050-052>070-192100-  
SOUTHEAST SOUTH DAKOTA  
 
CITY SKY/WX TMP DP RH WIND PRES REMARKS
 
BROOKINGS SUNNY 57 36 45 SW9 29.99F  
CHAMBERLAIN SUNNY 70 34 26 S10 29.94F  
HURON SUNNY 63 38 39 S14G22 29.95F  
MADISON FAIR 57 37 47 SW12G17 30.00F  
MITCHELL FAIR 62 40 44 S10 29.99F  
SIOUX FALLS MOSUNNY 60 36 40 VRB5 30.01F  
WINNER FAIR 70 29 21 VRB7G17 29.93F  
YANKTON SUNNY 60 30 32 W7 30.02F  

 
 
MNZ071-072-080-081-089-090-097-098-192100-  
SOUTHWEST MINNESOTA  
 
CITY SKY/WX TMP DP RH WIND PRES REMARKS
 
FAIRMONT SUNNY 58 31 35 NW7 30.02F  
JACKSON SUNNY 59 30 33 NW8 30.02F  
LUVERNE SUNNY 63 30 29 SW5 30.02F  
MARSHALL SUNNY 59 36 42 W7 30.01F  
MONTEVIDEO SUNNY 59 30 33 W6 30.00F  
PIPESTONE SUNNY 57 39 51 E7 30.01F  
REDWOOD FALLS SUNNY 61 32 33 SW9 30.01F  
TRACY SUNNY 59 34 39 W3 30.01F  
WINDOM SUNNY 61 30 31 W6 30.02F  
WORTHINGTON SUNNY 58 34 40 W8G16 30.03F  

 
 
IAZ001>003-012>014-020>022-031-032-NEZ013-014-SDZ071-192100-  
NORTHWEST IOWA  
 
CITY SKY/WX TMP DP RH WIND PRES REMARKS
 
CHEROKEE SUNNY 62 33 33 NW8 30.02F  
DENISON SUNNY 61 28 29 NE7G14 30.04F  
ESTHERVILLE SUNNY 59 30 33 NW13G20 30.01F  
LE MARS SUNNY 61 30 31 VRB5G13 30.03F  
SHELDON SUNNY 59 30 33 W8 30.01F  
SIOUX CITY SUNNY 63 34 33 VRB5 30.03F  
SPENCER SUNNY 62 31 31 NW12 30.02F  
STORM LAKE N/A 61 30 31 N14 29.99F  

 
 
ABBREVIATIONS USED IN REMARKS  
TC - TEMPERATURE IN CELSIUS  
WCI - WIND CHILL INDEX  
HX - HEAT INDEX  
VSB - VISIBILITY  
 
 
 
CLICK HERE TO GO TO PREVIOUS BULLETINS.

The Nexlab SD Page
The Nexlab IA Page
The Nexlab MN Page
The Nexlab NE Page Main Text Page